Fosston, MN

6:00 AM CST on February 20, 2017 (GMT -0600)
Fosston Municipal

Weather History for KFSE - April, 2014

Change the Weather History Date:

Tuesday, April 1, 2014

  Actual Average Record
Temperature  
Mean Temperature 12 °F -  
Max Temperature 19 °F 43 °F 75 °F (1963)
Min Temperature 5 °F 22 °F -8 °F (1975)
Degree Days  
Heating Degree Days 53    
Moisture  
Dew Point 7 °F    
Average Humidity 76    
Maximum Humidity 92    
Minimum Humidity 58    
Precipitation  
Precipitation 0.02 in - - ()
Sea Level Pressure  
Sea Level Pressure 29.96 in    
Wind  
Wind Speed 19 mph (NW)    
Max Wind Speed 32 mph    
Max Gust Speed 38 mph    
Visibility 8 miles    
Events Snow    
Averages and records for this station are not official NWS values.
T = Trace of Precipitation, MM = Missing Value Source: NWS Daily Summary

Daily Weather History Graph

Daily Weather History Graph

Search for Another Location

Airport or City:

Trip Planner

Search our weather history database for the weather conditions in past years. The results will help you decide how hot, cold, wet, or windy it might be!

Date:

Astronomy

Apr. 01, 2014 Rise Set
Actual Time 7:01 AM CDT 7:52 PM CDT
Civil Twilight 6:30 AM CDT 8:24 PM CDT
Nautical Twilight 5:53 AM CDT 9:01 PM CDT
Astronomical Twilight 5:14 AM CDT 9:41 PM CDT
Moon 7:56 AM CDT (4/1) 10:27 PM CDT (4/1)
Length of Visible Light 13h 53m
Length of Day
12h 51m
Waxing Crescent, 5% of the Moon is Illuminated
Apr 1
Waxing Crescent
Apr 7
First Quarter
Apr 15
Full
Apr 22
Last Quarter
Apr 29
New

Hourly Weather History & Observations

Time (CDT) Temp. Windchill Dew Point Humidity Pressure Visibility Wind Dir Wind Speed Gust Speed Precip Events Conditions
12:15 AM 12.2 °F -8.6 °F 10.4 °F 92% 29.73 in 1.2 mi North 27.6 mph 35.7 mph N/A Snow Light Snow
12:35 AM 12.2 °F -9.6 °F 10.4 °F 92% 29.74 in 1.2 mi North 31.1 mph - N/A Snow Light Snow
12:55 AM 12.2 °F -7.9 °F 10.4 °F 92% 29.75 in 1.2 mi North 25.3 mph 33.4 mph N/A Snow Light Snow
1:15 AM 12.2 °F -9.9 °F 10.4 °F 92% 29.75 in 1.0 mi North 32.2 mph 38.0 mph N/A Snow Light Snow
1:35 AM 12.2 °F -8.6 °F 10.4 °F 92% 29.76 in 1.5 mi North 27.6 mph 32.2 mph N/A Snow Light Snow
1:55 AM 12.2 °F -9.3 °F 10.4 °F 92% 29.76 in 1.2 mi North 29.9 mph 33.4 mph N/A Snow Light Snow
2:15 AM 12.2 °F -9.6 °F 8.6 °F 85% 29.77 in 1.2 mi North 31.1 mph 36.8 mph N/A Snow Light Snow
2:35 AM 12.2 °F -8.6 °F 10.4 °F 92% 29.77 in 1.8 mi North 27.6 mph 35.7 mph N/A Snow Light Snow
2:55 AM 12.2 °F -7.5 °F 10.4 °F 92% 29.79 in 1.8 mi NNW 24.2 mph - N/A Snow Light Snow
3:15 AM 12.2 °F -7.5 °F 8.6 °F 85% 29.79 in 1.5 mi NNW 24.2 mph 32.2 mph N/A Snow Light Snow
3:35 AM 12.2 °F -7.1 °F 8.6 °F 85% 29.80 in 1.5 mi NNW 23.0 mph 28.8 mph N/A Snow Light Snow
3:55 AM 12.2 °F -6.3 °F 8.6 °F 85% 29.81 in 1.5 mi NNW 20.7 mph 27.6 mph N/A Snow Light Snow
4:15 AM 12.2 °F -6.7 °F 8.6 °F 85% 29.82 in 1.8 mi NNW 21.9 mph 28.8 mph N/A Snow Light Snow
4:35 AM 12.2 °F -6.3 °F 8.6 °F 85% 29.82 in 1.8 mi NNW 20.7 mph 27.6 mph N/A Snow Light Snow
4:55 AM 12.2 °F -6.3 °F 8.6 °F 85% 29.83 in 4.0 mi NNW 20.7 mph 25.3 mph N/A Snow Light Snow
5:15 AM 12.2 °F -7.1 °F 8.6 °F 85% 29.84 in 3.0 mi NNW 23.0 mph 28.8 mph N/A Snow Light Snow
5:35 AM 12.2 °F -7.1 °F 8.6 °F 85% 29.85 in 4.0 mi NNW 23.0 mph 29.9 mph N/A Snow Light Snow
5:55 AM 10.4 °F -9.5 °F 6.8 °F 85% 29.86 in 5.0 mi NNW 23.0 mph 26.5 mph N/A Snow Light Snow
6:15 AM 10.4 °F -9.1 °F 6.8 °F 85% 29.87 in 5.0 mi NNW 21.9 mph 27.6 mph N/A Snow Light Snow
6:35 AM 10.4 °F -7.2 °F 6.8 °F 85% 29.88 in 7.0 mi NNW 17.3 mph 25.3 mph N/A Snow Light Snow
6:55 AM 10.4 °F -9.5 °F 6.8 °F 85% 29.88 in 7.0 mi NNW 23.0 mph 27.6 mph N/A Snow Light Snow
7:15 AM 10.4 °F -6.6 °F 6.8 °F 85% 29.89 in 7.0 mi NNW 16.1 mph 25.3 mph N/A   Overcast
7:35 AM 10.4 °F -7.7 °F 6.8 °F 85% 29.90 in 7.0 mi NNW 18.4 mph - N/A   Overcast
7:55 AM 12.2 °F -5.3 °F 6.8 °F 79% 29.90 in 7.0 mi NNW 18.4 mph - N/A   Overcast
8:15 AM 12.2 °F -4.3 °F 6.8 °F 79% 29.90 in 7.0 mi NW 16.1 mph - N/A Snow Light Snow
8:35 AM 10.4 °F -6.6 °F 6.8 °F 85% 29.91 in 10.0 mi NW 16.1 mph 20.7 mph N/A   Mostly Cloudy
8:55 AM 10.4 °F -6.6 °F 5.0 °F 79% 29.92 in 10.0 mi NW 16.1 mph - N/A   Clear
9:15 AM 12.2 °F -4.3 °F 5.0 °F 73% 29.92 in 10.0 mi NW 16.1 mph - N/A   Clear
9:35 AM 12.2 °F -4.3 °F 5.0 °F 73% 29.92 in 10.0 mi NW 16.1 mph - N/A   Clear
9:55 AM 14.0 °F 0.5 °F 5.0 °F 67% 29.93 in 10.0 mi NW 11.5 mph - 0.01 in   Clear
10:15 AM 14.0 °F -0.8 °F 5.0 °F 67% 29.94 in 10.0 mi NW 13.8 mph - N/A   Clear
10:35 AM 15.8 °F 0.9 °F 5.0 °F 62% 29.94 in 10.0 mi NNW 15.0 mph - N/A   Clear
10:55 AM 15.8 °F 2.1 °F 6.8 °F 68% 29.94 in 10.0 mi NNW 12.7 mph 19.6 mph 0.01 in   Clear
11:15 AM 17.6 °F 5.7 °F 6.8 °F 63% 29.95 in 10.0 mi NW 10.4 mph - N/A   Clear
11:35 AM 17.6 °F 5.0 °F 6.8 °F 63% 29.96 in 10.0 mi NW 11.5 mph - N/A   Clear
11:55 AM 17.6 °F 3.2 °F 5.0 °F 58% 29.96 in 10.0 mi NW 15.0 mph - N/A   Clear
12:15 PM 17.6 °F 4.3 °F 6.8 °F 63% 29.97 in 10.0 mi NW 12.7 mph 17.3 mph N/A   Clear
12:35 PM 19.4 °F 7.2 °F 6.8 °F 58% 29.98 in 10.0 mi WNW 11.5 mph 16.1 mph N/A   Clear
12:55 PM 19.4 °F 6.6 °F 6.8 °F 58% 29.98 in 10.0 mi WNW 12.7 mph 17.3 mph N/A   Clear
1:15 PM 17.6 °F 4.3 °F 6.8 °F 63% 29.99 in 10.0 mi WNW 12.7 mph - N/A   Clear
1:35 PM 17.6 °F 5.0 °F 5.0 °F 58% 30.00 in 10.0 mi WNW 11.5 mph 17.3 mph N/A   Clear
1:55 PM 17.6 °F 4.3 °F 6.8 °F 63% 30.01 in 10.0 mi West 12.7 mph 17.3 mph N/A   Clear
2:15 PM 17.6 °F 5.0 °F 6.8 °F 63% 30.01 in 10.0 mi West 11.5 mph - N/A   Clear
2:35 PM 19.4 °F 6.6 °F 6.8 °F 58% 30.01 in 10.0 mi West 12.7 mph - N/A   Clear
2:55 PM 19.4 °F 7.2 °F 6.8 °F 58% 30.01 in 10.0 mi WNW 11.5 mph - N/A   Clear
3:15 PM 19.4 °F 7.9 °F 6.8 °F 58% 30.01 in 10.0 mi NW 10.4 mph - N/A   Clear
3:35 PM 19.4 °F 6.6 °F 6.8 °F 58% 30.01 in 10.0 mi WNW 12.7 mph - N/A   Clear
3:55 PM 19.4 °F 7.2 °F 6.8 °F 58% 30.02 in 10.0 mi WNW 11.5 mph - N/A   Clear
4:15 PM 19.4 °F 6.6 °F 6.8 °F 58% 30.03 in 10.0 mi NW 12.7 mph - N/A   Clear
4:36 PM 19.4 °F 7.2 °F 6.8 °F 58% 30.03 in 10.0 mi NW 11.5 mph - N/A   Clear
4:55 PM 19.4 °F 7.2 °F 8.6 °F 63% 30.04 in 10.0 mi NW 11.5 mph - N/A   Clear
5:15 PM 19.4 °F 7.2 °F 6.8 °F 58% 30.04 in 10.0 mi WNW 11.5 mph - N/A   Clear
5:36 PM 19.4 °F 7.9 °F 6.8 °F 58% 30.04 in 10.0 mi WNW 10.4 mph - N/A   Clear
5:55 PM 19.4 °F 8.6 °F 8.6 °F 63% 30.06 in 10.0 mi WNW 9.2 mph - N/A   Clear
6:15 PM 19.4 °F 9.5 °F 6.8 °F 58% 30.06 in 10.0 mi WNW 8.1 mph - N/A   Clear
6:36 PM 17.6 °F 7.3 °F 8.6 °F 68% 30.07 in 10.0 mi WNW 8.1 mph - N/A   Clear
6:55 PM 17.6 °F 8.2 °F 8.6 °F 68% 30.07 in 10.0 mi WNW 6.9 mph - N/A   Clear
7:15 PM 15.8 °F 7.2 °F 8.6 °F 73% 30.08 in 10.0 mi WNW 5.8 mph - N/A   Clear
7:35 PM 15.8 °F 8.6 °F 8.6 °F 73% 30.09 in 10.0 mi WNW 4.6 mph - N/A   Clear
7:55 PM 12.2 °F 2.9 °F 6.8 °F 79% 30.09 in 10.0 mi WNW 5.8 mph - N/A   Clear
8:15 PM 10.4 °F 2.2 °F 6.8 °F 85% 30.09 in 10.0 mi WNW 4.6 mph - N/A   Clear
8:35 PM 10.4 °F 2.2 °F 6.8 °F 85% 30.10 in 10.0 mi WNW 4.6 mph - N/A   Clear
8:55 PM 10.4 °F - 6.8 °F 85% 30.10 in 10.0 mi Calm Calm - N/A   Clear
9:15 PM 8.6 °F 2.0 °F 6.8 °F 92% 30.11 in 10.0 mi West 3.5 mph - N/A   Clear
9:35 PM 8.6 °F 2.0 °F 6.8 °F 92% 30.11 in 10.0 mi West 3.5 mph - N/A   Clear
9:55 PM 8.6 °F - 5.0 °F 85% 30.12 in 10.0 mi Calm Calm - N/A   Clear
10:15 PM 8.6 °F 2.0 °F 5.0 °F 85% 30.12 in 10.0 mi West 3.5 mph - N/A   Clear
10:35 PM 8.6 °F - 5.0 °F 85% 30.12 in 10.0 mi Calm Calm - N/A   Clear
10:55 PM 6.8 °F - 3.2 °F 85% 30.12 in 10.0 mi Calm Calm - N/A   Clear
11:15 PM 6.8 °F - 1.4 °F 79% 30.13 in 10.0 mi Calm Calm - N/A   Clear
11:35 PM 5.0 °F - 1.4 °F 85% 30.13 in 10.0 mi Calm Calm - N/A   Clear
11:55 PM 5.0 °F - 1.4 °F 85% 30.13 in 10.0 mi Calm Calm - N/A   Clear